Bloomington, IN

12:26 AM EDT on May 24, 2017 (GMT -0400)
Monroe County

Weather History for KBMG - December, 1998

Change the Weather History Date:

Wednesday, December 30, 1998

  Actual Average Record
Temperature  
Mean Temperature 14 °F 30 °F  
Max Temperature 19 °F 38 °F 57 °F (2002)
Min Temperature 8 °F 21 °F 4 °F (2012)
Degree Days  
Heating Degree Days 52 35  
Month to date heating degree days 981  
Since 1 July heating degree days 2037  
Cooling Degree Days 0 0  
Month to date cooling degree days 0  
Year to date cooling degree days 927  
Moisture  
Dew Point 11 °F    
Average Humidity 81    
Maximum Humidity 93    
Minimum Humidity 65    
Precipitation  
Precipitation 0.06 in 0.13 in 0.31 in (2005)
Month to date precipitation 3.41  
Year to date precipitation 47.42  
Sea Level Pressure  
Sea Level Pressure 30.14 in    
Wind  
Wind Speed 6 mph (SSE)    
Max Wind Speed 10 mph    
Max Gust Speed -    
Visibility 6 miles    
Events Snow    
T = Trace of Precipitation, MM = Missing Value Source: NWS Daily Summary

Daily Weather History Graph

Daily Weather History Graph

Search for Another Location

Airport or City:

Trip Planner

Search our weather history database for the weather conditions in past years. The results will help you decide how hot, cold, wet, or windy it might be!

Date:

Astronomy

Dec. 30, 1998 Rise Set
Actual Time 8:05 AM EST 5:32 PM EST
Civil Twilight 7:35 AM EST 6:02 PM EST
Nautical Twilight 7:01 AM EST 6:36 PM EST
Astronomical Twilight 6:29 AM EST 7:08 PM EST
Moon 3:43 PM EST (12/30) 5:05 AM EST (12/30)
Length of Visible Light 10h 27m
Length of Day
9h 27m
Waxing Gibbous, 92% of the Moon is Illuminated
Dec 30
Waxing Gibbous
Jan 1
Full
Jan 9
Last Quarter
Jan 17
New
Jan 24
First Quarter

Hourly Weather History & Observations

Time (EST) Temp. Windchill Dew Point Humidity Pressure Visibility Wind Dir Wind Speed Gust Speed Precip Events Conditions
12:53 AM 18.0 °F 6.1 °F 8.1 °F 65% 30.09 in 10.0 mi NNW 10.4 mph - N/A   Mostly Cloudy
1:53 AM 16.0 °F 6.3 °F 7.0 °F 68% 30.10 in 10.0 mi NW 6.9 mph - N/A   Clear
2:53 AM 15.1 °F 4.2 °F 7.0 °F 70% 30.13 in 10.0 mi NNW 8.1 mph - N/A   Clear
3:53 AM 12.9 °F 1.6 °F 6.1 °F 74% 30.15 in 10.0 mi NNW 8.1 mph - N/A   Clear
4:53 AM 12.0 °F 1.5 °F 5.0 °F 73% 30.17 in 10.0 mi WNW 6.9 mph - N/A   Clear
5:53 AM 10.0 °F 0.4 °F 3.9 °F 76% 30.19 in 10.0 mi NW 5.8 mph - N/A   Clear
6:53 AM 9.0 °F -2.2 °F 3.0 °F 77% 30.20 in 10.0 mi NNW 6.9 mph - N/A   Clear
7:53 AM 8.1 °F -0.5 °F 3.0 °F 80% 30.22 in 10.0 mi West 4.6 mph - N/A   Clear
8:53 AM 8.1 °F -2.0 °F 1.9 °F 76% 30.22 in 10.0 mi NW 5.8 mph - N/A   Clear
9:53 AM 10.0 °F 3.6 °F 3.0 °F 73% 30.23 in 10.0 mi Variable 3.5 mph - N/A   Clear
10:53 AM 12.9 °F - 3.9 °F 67% 30.25 in 10.0 mi Calm Calm - N/A   Clear
11:53 AM 15.1 °F 7.7 °F 7.0 °F 70% 30.26 in 10.0 mi Variable 4.6 mph - N/A   Clear
12:53 PM 16.0 °F - 6.1 °F 65% 30.22 in 10.0 mi Calm Calm - N/A   Clear
1:53 PM 17.1 °F - 8.1 °F 68% 30.19 in 10.0 mi Calm Calm - N/A   Clear
2:53 PM 18.0 °F 8.7 °F 9.0 °F 68% 30.19 in 10.0 mi SW 6.9 mph - N/A   Clear
3:53 PM 19.0 °F 10.0 °F 9.0 °F 65% 30.16 in 10.0 mi South 6.9 mph - N/A   Partly Cloudy
4:53 PM 19.0 °F 10.0 °F 9.0 °F 65% 30.16 in 10.0 mi SE 6.9 mph - N/A   Overcast
5:53 PM 19.0 °F 11.1 °F 9.0 °F 65% 30.15 in 10.0 mi South 5.8 mph - N/A   Overcast
6:53 PM 18.0 °F 9.8 °F 12.9 °F 81% 30.15 in 2.5 mi SSE 5.8 mph - 0.00 in Snow Light Snow
7:03 PM 17.6 °F 10.7 °F 14.0 °F 86% 30.11 in 1.2 mi South 4.6 mph - 0.01 in Snow Light Snow
7:14 PM 17.6 °F 10.7 °F 15.8 °F 93% 30.11 in 1.5 mi SSE 4.6 mph - 0.01 in Snow Light Snow
7:33 PM 17.6 °F 10.7 °F 15.8 °F 93% 30.10 in 1.5 mi SE 4.6 mph - 0.01 in Snow Light Snow
7:53 PM 18.0 °F 11.1 °F 15.1 °F 88% 30.15 in 2.0 mi SE 4.6 mph - 0.01 in Snow Light Snow
8:05 PM 17.6 °F 9.3 °F 15.8 °F 93% 30.09 in 3.0 mi SSE 5.8 mph - 0.00 in Snow Light Snow
8:15 PM 17.6 °F 12.3 °F 15.8 °F 93% 30.10 in 1.8 mi SSE 3.5 mph - 0.01 in Snow Light Snow
8:45 PM 17.6 °F 10.7 °F 15.8 °F 93% 30.09 in 2.0 mi SE 4.6 mph - 0.01 in Snow Light Snow
8:53 PM 18.0 °F 11.1 °F 16.0 °F 92% 30.13 in 1.8 mi SE 4.6 mph - 0.01 in Snow Light Snow
9:02 PM 17.6 °F 9.3 °F 15.8 °F 93% 30.08 in 2.0 mi SSE 5.8 mph - 0.00 in Snow Light Snow
9:09 PM 17.6 °F 10.7 °F 15.8 °F 93% 30.08 in 1.8 mi SSE 4.6 mph - 0.00 in Snow Light Snow
9:25 PM 17.6 °F 10.7 °F 15.8 °F 93% 30.08 in 1.5 mi SSE 4.6 mph - 0.01 in Snow Light Snow
9:32 PM 17.6 °F 10.7 °F 15.8 °F 93% 30.08 in 3.0 mi SSE 4.6 mph - 0.01 in Snow Light Snow
9:53 PM 18.0 °F - 12.9 °F 81% 30.13 in 1.5 mi Calm Calm - 0.01 in Snow Light Snow
10:04 PM 17.6 °F 12.3 °F 14.0 °F 86% 30.08 in 1.0 mi SE 3.5 mph - 0.00 in Snow Light Snow
10:53 PM 18.0 °F - 16.0 °F 92% 30.13 in 1.5 mi Calm Calm - 0.02 in Snow Light Snow
11:05 PM 17.6 °F - 15.8 °F 93% 30.09 in 1.8 mi Calm Calm - 0.00 in Snow Light Snow
11:12 PM 17.6 °F 12.3 °F 15.8 °F 93% 30.08 in 2.5 mi ESE 3.5 mph - 0.00 in Snow Light Snow
11:16 PM 17.6 °F - 15.8 °F 93% 30.08 in 3.0 mi Calm Calm - 0.00 in Snow Light Snow
11:34 PM 19.4 °F - 15.8 °F 86% 30.09 in 2.5 mi Calm Calm - 0.01 in Snow Light Snow
11:44 PM 19.4 °F 14.3 °F 15.8 °F 86% 30.08 in 3.0 mi ESE 3.5 mph - 0.01 in Snow Light Snow
11:53 PM 19.0 °F 12.3 °F 17.1 °F 92% 30.12 in 3.0 mi SE 4.6 mph - 0.01 in Snow Light Snow